EW0209 Weather Reports


Display with metric or nautical units.
time (UTC)temp
F
wind
direction
speed
MPH
gust
MPH
rain 1hr
in
rain 24hr
in
rain mn
in
humidity
%
barometer
mb
20260506211504 82 360 2.0 10.0 0.00 0.00 0.00 20 1016.2
20260506210002 82 360 3.0 9.0 0.00 0.00 0.00 20 1016.4
20260506204600 79 360 2.0 6.0 0.00 0.00 0.00 21 1016.6
20260506203058 80 360 2.0 6.0 0.00 0.00 0.00 22 1016.8
20260506201558 79 360 1.0 9.0 0.00 0.00 0.00 23 1016.9
20260506200057 77 360 5.0 11.0 0.00 0.00 0.00 25 1017.1
20260506194556 79 360 3.0 6.0 0.00 0.00 0.00 24 1017.2
20260506193057 79 360 4.0 8.0 0.00 0.00 0.00 25 1017.4
20260506191601 77 360 3.0 6.0 0.00 0.00 0.00 25 1017.6
20260506190053 77 360 3.0 6.0 0.00 0.00 0.00 26 1017.8
20260506184555 78 360 4.0 8.0 0.00 0.00 0.00 25 1018.1
20260506183055 76 360 1.0 6.0 0.00 0.00 0.00 25 1018.2
20260506181557 75 360 1.0 6.0 0.00 0.00 0.00 28 1018.3
20260506180042 75 360 2.0 8.0 0.00 0.00 0.00 29 1018.4
20260506174539 74 360 3.0 6.0 0.00 0.00 0.00 30 1018.4
20260506173102 74 360 1.0 5.0 0.00 0.00 0.00 29 1018.5
20260506171540 74 360 2.0 4.0 0.00 0.00 0.00 29 1018.5
20260506170038 74 360 2.0 5.0 0.00 0.00 0.00 30 1018.5
20260506164524 73 360 2.0 4.0 0.00 0.00 0.00 30 1018.5
20260506163027 71 360 2.0 4.0 0.00 0.00 0.00 33 1018.5
20260506161516 71 360 2.0 4.0 0.00 0.00 0.00 33 1018.5
20260506160012 70 360 0.0 4.0 0.00 0.00 0.00 33 1018.6
20260506154508 70 360 1.0 4.0 0.00 0.00 0.00 35 1018.5
20260506153004 69 360 2.0 5.0 0.00 0.00 0.00 37 1018.5
20260506151600 67 360 0.0 3.0 0.00 0.00 0.00 39 1018.4
20260506150056 67 360 0.0 2.0 0.00 0.00 0.00 41 1018.4
20260506144556 65 360 0.0 3.0 0.00 0.00 0.00 43 1018.3
20260506143050 63 360 0.0 1.0 0.00 0.00 0.00 48 1018.3
20260506141546 60 360 0.0 1.0 0.00 0.00 0.00 52 1018.2
20260506140042 58 360 0.0 3.0 0.00 0.00 0.00 56 1017.9
20260506134538 55 360 0.0 0.0 0.00 0.00 0.00 60 1017.8
20260506133045 55 360 1.0 2.0 0.00 0.00 0.00 59 1017.6
20260506131534 53 360 0.0 2.0 0.00 0.00 0.00 61 1017.4
20260506130032 54 360 1.0 3.0 0.00 0.00 0.00 59 1017.2
20260506124528 55 360 2.0 3.0 0.00 0.00 0.00 55 1017.1
20260506123026 57 360 1.0 3.0 0.00 0.00 0.00 50 1017.0
20260506121525 57 360 0.0 2.0 0.00 0.00 0.00 49 1016.7
20260506120024 57 360 0.0 3.0 0.00 0.00 0.00 48 1016.7
20260506114523 58 360 2.0 4.0 0.00 0.00 0.00 48 1016.6
20260506113021 58 360 1.0 4.0 0.00 0.00 0.00 47 1016.5
20260506111520 57 360 3.0 5.0 0.00 0.00 0.00 51 1016.4
20260506110019 55 360 3.0 5.0 0.00 0.00 0.00 56 1016.5
20260506104536 56 360 1.0 3.0 0.00 0.00 0.00 54 1016.4
20260506103015 60 360 2.0 6.0 0.00 0.00 0.00 44 1016.2
20260506101514 59 360 3.0 5.0 0.00 0.00 0.00 48 1016.0
20260506100013 57 360 3.0 5.0 0.00 0.00 0.00 50 1016.0
20260506094511 57 360 1.0 3.0 0.00 0.00 0.00 51 1015.9
20260506093013 55 360 3.0 5.0 0.00 0.00 0.00 55 1015.8
20260506091508 56 360 1.0 3.0 0.00 0.00 0.00 53 1015.6
20260506090006 57 360 1.0 4.0 0.00 0.00 0.00 52 1015.6
20260506084507 56 360 2.0 5.0 0.00 0.00 0.00 54 1015.5
20260506083003 57 360 3.0 8.0 0.00 0.00 0.00 51 1015.6
20260506081602 58 360 3.0 5.0 0.00 0.00 0.00 47 1015.6
20260506080114 59 360 2.0 4.0 0.00 0.00 0.00 47 1015.6
20260506073051 64 360 2.0 6.0 0.00 0.00 0.00 37 1015.5
20260506071554 64 360 3.0 5.0 0.00 0.00 0.00 37 1015.4
20260506061545 64 360 2.0 4.0 0.00 0.00 0.00 37 1015.0
20260506044538 66 360 2.0 5.0 0.00 0.00 0.00 35 1014.3
20260506043046 67 360 2.0 5.0 0.00 0.00 0.00 34 1014.3
20260506041537 68 360 2.0 5.0 0.00 0.00 0.00 33 1014.2
20260506040044 68 360 3.0 6.0 0.00 0.00 0.00 33 1014.0
20260506034533 68 360 3.0 8.0 0.00 0.00 0.00 34 1013.9
20260506033032 69 360 5.0 13.0 0.00 0.00 0.00 33 1013.6
20260506031532 69 360 6.0 11.0 0.00 0.00 0.00 34 1013.3
20260506030031 70 360 7.0 13.0 0.00 0.00 0.00 33 1013.0
20260506024540 70 360 5.0 13.0 0.00 0.00 0.00 32 1012.9
20260506023031 71 360 7.0 13.0 0.00 0.00 0.00 32 1012.6
20260506021546 71 360 4.0 14.0 0.00 0.00 0.00 30 1012.3
20260506020029 73 360 9.0 16.0 0.00 0.00 0.00 29 1012.0
20260506014529 73 360 4.0 16.0 0.00 0.00 0.00 28 1011.9
20260506013029 74 360 8.0 17.0 0.00 0.00 0.00 27 1011.9
20260506011531 74 360 8.0 15.0 0.00 0.00 0.00 27 1011.9
20260506010036 75 360 10.0 16.0 0.00 0.00 0.00 26 1011.8
20260506004527 75 360 10.0 21.0 0.00 0.00 0.00 26 1011.6
20260506003027 75 360 7.0 21.0 0.00 0.00 0.00 26 1011.7
20260506001526 76 360 9.0 18.0 0.00 0.00 0.00 26 1011.5
20260506000025 76 360 9.0 19.0 0.00 0.00 0.00 27 1011.5
20260505234529 76 360 11.0 23.0 0.00 0.00 0.00 27 1011.4
20260505233026 77 360 8.0 18.0 0.00 0.00 0.00 27 1011.4
20260505231528 77 360 12.0 22.0 0.00 0.00 0.00 27 1011.3
20260505230025 77 360 6.0 18.0 0.00 0.00 0.00 27 1011.4
20260505224529 77 360 10.0 18.0 0.00 0.00 0.00 27 1011.4
20260505223019 77 360 7.0 19.0 0.00 0.00 0.00 27 1011.7
20260505221519 78 360 10.0 18.0 0.00 0.00 0.00 27 1012.0
20260505220016 76 360 9.0 19.0 0.00 0.00 0.00 29 1012.0
20260505214515 78 360 9.0 17.0 0.00 0.00 0.00 28 1012.2
20260505213018 77 360 11.0 20.0 0.00 0.00 0.00 29 1012.3